CAPE
27 36 61 179 307 425 1089 1396 1951 2076 1813 1390 141 84 3 0 0 0 0 204 77 0 0 0 39 2 49 3 8 37 71 8 1
3 0 38 47 171 292 948 1348 1948 1754 1731 845 185 31 0 0 1 0 45 16 0 0 118 0 6 6 0 3 77 129 78 11 0
62 8 60 117 170 402 959 1434 1728 1653 1433 528 105 231 7 64 167 104 11 21 0 0 0 0 2 43 66 64 9 3 109 13 0
78 103 185 303 490 532 1023 1500 1582 1418 1161 674 152 238 71 211 328 148 36 36 0 0 0 123 106 89 58 38 50 111 178 82 12
0 50 95 132 216 712 1252 1474 1343 1156 1026 643 140 262 185 279 2 0 5 11 0 0 0 0 8 0 3 17 16 10 21 19 14
0 0 127 200 98 53 1411 1349 1076 1003 915 711 270 69 307 175 49 15 6 6 4 7 4 3 0 6 31 32 0 0 23 127 84
2 0 422 653 944 1059 1254 1316 981 834 684 525 311 178 223 178 74 18 22 40 66 84 58 24 70 178 61 74 82 103 172 171 136
0 34 302 1067 1189 1687 1439 1317 933 713 413 359 312 279 233 187 91 47 90 104 151 257 73 106 99 162 153 54 177 265 93 49 81
0 0 0 228 1372 1380 1546 1418 994 684 319 214 143 211 192 159 105 43 54 87 150 206 153 116 330 133 94 100 235 152 76 66 58
0 0 0 0 0 1173 1472 1494 1162 540 140 89 166 156 113 44 14 14 67 166 249 460 399 450 104 108 277 52 230 252 88 108 37
0 0 0 0 0 513 1737 1511 1037 449 274 101 5 0 48 58 64 122 168 280 346 351 398 221 174 193 109 173 337 273 193 46 39
0 30 131 164 132 1082 1784 1561 1070 566 283 68 21 1 56 171 170 178 274 434 528 520 474 330 309 312 141 308 229 65 35 13 0
97 122 159 107 198 835 1495 1437 844 632 376 298 240 153 274 371 444 465 534 629 656 713 569 394 413 179 39 149 56 28 1 0 0
189 183 288 324 362 1323 1661 1217 888 597 452 535 340 339 502 680 726 752 751 772 774 765 617 384 219 79 293 211 144 11 0 0 0
200 251 382 586 1011 1379 1697 1183 904 606 595 615 582 642 819 919 1045 1050 981 941 933 864 606 228 82 198 256 124 35 0 0 0 6
0 287 334 807 1564 1627 1205 844 641 272 0 1 356 1241 1235 1366 1408 1292 1111 1023 811 501 141 105 35 128 173 67 0 0 0 0 0
163 872 905 969 795 388 75 3 132 0 0 1 0 1 110 3 19 1292 1096 539 345 321 219 109 130 80 15 7 0 0 0 0 0
818 970 743 769 286 187 131 57 94 0 0 0 0 0 0 0 720 684 274 89 112 135 0 0 0 0 0 0 0 0 0 0 0
651 510 338 98 87 19 1 34 10 0 0 0 1 6 25 619 649 579 187 0 0 0 0 0 0 0 0 0 0 0 0 0 0
595 307 216 105 78 1 0 0 0 0 0 0 142 743 381 370 190 152 126 10 0 0 0 0 0 0 0 0 0 0 0 0 0
CIN
-68 -102 -102 -100 -113 -132 -133 -106 -94 -123 -97 -96 -212 -258 -25 -0 -0 -0 -0 -247 -297 -0 -0 -0 -291 -349 -242 -91 -276 -168 -109 -171 -1
-19 -0 -77 -74 -90 -140 -147 -127 -133 -141 -151 -174 -251 -287 -0 -0 -45 -0 -285 -269 -0 -0 -198 -0 -221 -93 -0 -218 -133 -72 -85 -133 -0
-71 -126 -75 -51 -103 -142 -156 -139 -157 -183 -168 -220 -293 -287 -132 -293 -266 -285 -136 -317 -0 -0 -0 -0 -92 -188 -170 -155 -201 -112 -61 -31 -0
-105 -108 -59 -117 -96 -99 -145 -168 -168 -205 -190 -219 -289 -304 -299 -236 -218 -265 -338 -302 -0 -0 -0 -138 -138 -143 -143 -134 -105 -64 -36 -39 -44
-0 -84 -101 -145 -144 -153 -164 -203 -182 -223 -228 -242 -292 -278 -289 -226 -60 -0 -245 -310 -0 -0 -0 -0 -228 -12 -96 -112 -112 -114 -93 -83 -88
-0 -0 -67 -185 -284 -305 -183 -177 -208 -257 -252 -256 -289 -308 -264 -261 -303 -261 -273 -296 -292 -263 -126 -93 -0 -59 -84 -83 -0 -0 -69 -30 -55
-32 -2 -38 -68 -101 -144 -166 -191 -250 -278 -275 -273 -262 -257 -257 -243 -273 -307 -301 -277 -220 -158 -170 -169 -94 -34 -69 -74 -44 -18 -11 -11 -18
-0 -12 -45 -31 -73 -118 -145 -176 -275 -271 -287 -298 -279 -260 -261 -270 -235 -275 -219 -189 -154 -95 -116 -90 -79 -52 -43 -93 -22 -7 -35 -10 -27
-0 -0 -0 -70 -30 -77 -115 -151 -248 -278 -306 -311 -272 -256 -240 -213 -202 -219 -174 -157 -138 -97 -96 -79 -46 -57 -89 -54 -15 -12 -26 -16 -19
-0 -0 -0 -0 -0 -44 -84 -139 -206 -257 -281 -145 -253 -226 -205 -153 -187 -171 -166 -137 -104 -68 -66 -42 -61 -64 -30 -46 -15 -11 -19 -27 -34
-0 -0 -0 -0 -0 -76 -71 -145 -257 -301 -313 -285 -117 -0 -235 -156 -145 -158 -153 -120 -80 -67 -58 -55 -52 -50 -43 -27 -17 -16 -24 -38 -38
-0 -177 -122 -155 -135 -77 -77 -129 -212 -270 -279 -291 -245 -15 -227 -115 -142 -135 -135 -102 -63 -45 -35 -50 -46 -27 -26 -17 -17 -53 -47 -41 -0
-131 -107 -156 -179 -136 -73 -75 -150 -234 -266 -263 -241 -217 -200 -114 -109 -125 -114 -92 -60 -38 -34 -41 -43 -37 -32 -44 -42 -60 -41 -16 -0 -0
-114 -129 -130 -131 -112 -53 -66 -157 -244 -223 -239 -166 -163 -108 -98 -97 -96 -68 -67 -53 -40 -32 -38 -44 -55 -59 -49 -32 -35 -34 -0 -0 -0
-127 -112 -102 -85 -54 -54 -96 -165 -172 -171 -142 -143 -128 -71 -72 -57 -42 -41 -40 -28 -18 -15 -46 -47 -43 -31 -38 -41 -76 -0 -0 -0 -123
-0 -53 -30 -33 -46 -143 -191 -193 -161 -197 -31 -21 -190 -40 -31 -22 -22 -25 -21 -23 -17 -46 -72 -90 -54 -16 -33 -55 -0 -0 -0 -0 -0
-155 -115 -149 -200 -197 -250 -366 -406 -378 -0 -0 -168 -0 -7 -99 -65 -118 -10 -34 -93 -93 -65 -85 -69 -63 -78 -58 -63 -0 -0 -0 -0 -0
-179 -215 -321 -253 -236 -237 -284 -317 -317 -0 -0 -0 -0 -0 -0 -0 -24 -10 -64 -84 -58 -100 -0 -0 -0 -0 -0 -0 -0 -0 -0 -0 -0
-237 -235 -226 -306 -346 -270 -58 -335 -64 -0 -0 -0 -121 -29 -82 -39 -25 -25 -83 -0 -0 -0 -0 -0 -0 -0 -0 -0 -0 -0 -0 -0 -0
-176 -272 -303 -388 -362 -39 -0 -0 -0 -0 -0 -0 -115 -30 -21 -26 -32 -32 -71 -128 -0 -0 -0 -0 -0 -0 -0 -0 -0 -0 -0 -0 -0
Wind_Speed
9 12 16 19 18 18 18 16 13 9 9 6 5 6 8 12 15 16 17 18 17 17 18 17 18 19 18 18 19 20 18 19 21
13 20 12 17 21 18 17 17 14 10 9 8 5 3 5 9 13 14 17 18 19 19 19 18 19 19 19 19 20 22 20 20 20
11 15 16 18 16 13 15 16 14 10 9 9 7 4 2 5 7 10 13 16 18 18 18 17 18 18 18 19 20 22 21 20 20
7 14 14 9 10 18 15 13 16 11 9 8 7 5 3 3 4 6 10 13 16 16 17 17 17 17 18 18 19 20 21 19 20
6 7 11 14 14 13 14 14 17 12 10 8 7 5 4 2 4 8 8 11 14 16 17 18 17 18 19 19 20 20 19 18 19
5 6 6 10 16 17 16 17 16 12 10 9 7 7 5 2 3 5 7 10 14 16 17 16 17 17 17 19 19 19 18 18 18
6 3 4 6 6 13 18 17 14 13 11 9 8 7 7 5 3 3 6 9 12 13 13 16 16 16 18 19 18 19 20 20 18
10 7 2 3 5 11 14 14 13 15 13 11 9 7 7 7 4 2 5 9 11 11 12 14 15 18 19 20 20 21 21 23 20
8 13 11 9 8 9 13 15 15 15 14 13 10 9 7 6 5 3 5 7 7 9 11 13 15 19 21 22 20 20 23 24 23
13 14 17 19 18 11 12 14 14 15 8 13 10 10 7 7 5 4 4 5 7 9 11 13 16 20 21 23 21 20 23 22 23
10 13 16 19 23 14 7 9 10 10 12 15 12 10 7 8 6 5 5 6 8 10 13 14 18 19 22 22 20 23 22 22 24
11 12 16 19 18 11 6 7 9 10 11 11 10 8 9 8 6 6 7 10 11 12 15 15 16 19 22 23 21 23 20 21 26
13 14 18 22 22 15 7 6 7 9 10 9 10 10 9 7 6 8 10 10 12 13 15 15 17 20 23 22 21 22 20 22 27
16 18 21 20 21 14 6 5 6 7 6 8 8 8 7 8 9 10 11 11 12 14 18 17 21 22 22 23 25 22 21 22 27
22 25 25 20 19 13 7 4 5 5 6 8 8 10 10 11 13 13 12 13 14 13 16 16 29 22 14 19 23 23 24 26 23
29 22 18 14 13 17 14 5 5 7 13 15 22 11 14 13 13 17 17 17 16 18 20 25 17 19 20 22 22 22 24 24 24
31 21 13 10 11 14 14 13 7 7 11 15 26 20 15 20 24 24 18 17 16 18 21 21 19 22 22 23 20 23 25 25 25
20 16 11 9 9 14 10 17 9 10 8 11 15 17 20 22 23 23 18 19 18 18 17 20 21 20 21 22 22 24 24 24 23
17 16 14 15 15 10 14 9 9 9 10 8 10 15 18 20 22 22 18 17 18 16 15 16 18 20 19 21 22 22 24 24 20
14 15 18 16 14 17 10 11 11 11 14 15 17 16 19 21 20 19 14 13 13 14 16 17 19 19 20 21 22 25 27 29 19
Wind_Direction
194 194 191 180 172 169 165 163 158 152 151 137 104 77 49 32 29 24 27 25 28 20 12 8 7 6 9 8 6 1 360 360 358
180 187 180 181 178 177 176 170 168 167 166 162 151 109 48 29 25 25 24 23 18 14 13 10 6 5 2 1 359 357 357 354 352
177 173 181 181 180 189 185 183 180 178 180 177 176 168 77 27 32 33 24 18 16 16 13 10 6 4 2 359 355 353 353 351 349
161 183 170 162 167 183 190 193 184 186 189 194 194 194 194 0 13 27 19 18 16 18 14 11 8 4 359 357 355 352 350 348 347
55 43 157 188 199 188 198 198 186 195 200 207 209 205 203 317 10 7 11 14 10 10 9 8 6 2 0 358 353 352 349 346 346
60 55 82 165 177 189 190 186 193 205 206 211 208 203 201 225 326 360 4 6 4 3 5 8 4 3 0 355 353 353 350 346 345
48 36 73 121 163 182 183 191 202 203 205 203 196 193 200 221 236 329 353 358 359 359 6 3 1 1 357 355 354 352 348 347 344
324 351 320 171 179 196 198 200 206 205 208 205 199 201 198 207 222 295 342 352 354 1 2 0 1 358 356 353 352 351 353 349 349
303 309 332 335 263 242 217 212 215 209 211 204 207 218 212 214 220 273 321 339 348 352 353 354 357 354 353 352 351 351 348 347 346
302 313 322 324 320 286 233 223 220 211 210 265 215 213 216 209 226 264 297 317 334 341 343 350 353 353 353 350 350 350 346 347 346
311 323 325 330 326 317 249 234 221 212 212 208 217 210 230 220 244 276 296 316 329 332 339 341 345 347 348 347 350 346 347 349 347
307 329 335 334 337 328 286 236 211 212 210 213 228 235 241 230 251 280 304 317 324 328 332 331 335 339 342 343 346 349 350 350 348
326 323 334 332 332 322 288 260 222 216 226 249 246 250 222 240 271 296 306 312 317 321 324 321 330 337 340 347 349 347 346 350 346
318 319 320 335 332 333 297 260 238 225 234 252 246 224 256 274 289 299 303 306 311 315 322 324 329 333 339 342 346 350 346 347 345
310 310 314 326 325 327 321 257 226 239 258 275 256 263 282 290 296 301 303 306 314 313 324 323 331 337 344 349 350 351 348 347 347
320 317 315 327 341 351 347 320 315 342 339 347 324 275 298 303 303 308 309 315 319 328 337 333 327 333 340 347 350 353 352 354 354
313 326 325 342 348 357 354 4 330 11 344 359 333 317 338 335 323 324 329 336 335 332 333 331 334 337 341 345 349 347 345 347 347
317 319 317 318 327 332 312 313 312 314 337 352 308 321 331 324 318 320 323 329 331 333 338 338 339 340 341 343 342 340 342 343 343
321 319 314 307 307 299 307 303 308 314 327 344 326 319 323 327 325 328 330 335 341 354 353 355 354 348 347 348 347 347 343 339 345
322 322 318 318 319 320 308 308 305 310 308 310 314 327 329 335 337 336 338 346 348 348 352 354 354 353 354 352 350 348 343 332 345